Flight Track Log - Related Links

Times and Time Zones

All times are in EDT time to prevent confusion due to time zone crossing. See the ASQ4301 flight status page for this flight to view local times or setup timezone preferences in your user account.

Time Position Orientation Groundspeed Altitude Reporting Facility
EDT Latitude Longitude Course Direction KTS MPH feet Rate Location/Type
Fri 09:43:11 PM 29.9381 -95.3608 214° Southwest 199 229 2,000  Level Houston Center
Fri 09:44:05 PM 29.9847 -95.3650 356° North 235 270 3,800 1,475 Climbing Houston Center
Fri 09:45:13 PM 30.0647 -95.3214 25° Northeast 277 319 5,000 651 Climbing Houston Center
Fri 09:46:14 PM 30.1261 -95.2908 23° Northeast 269 310 5,200 1,525 Climbing Houston Center
Fri 09:47:15 PM 30.2006 -95.2678 15° North 275 316 8,100 2,508 Climbing Houston Center
Fri 09:48:16 PM 30.2656 -95.2144 35° Northeast 291 335 10,300 1,659 Climbing Houston Center
Fri 09:49:18 PM 30.3458 -95.1172 46° Northeast 326 375 11,500 1,415 Climbing Houston Center
Fri 09:50:19 PM 30.4164 -95.0233 49° Northeast 360 414 13,200 1,721 Climbing Houston Center
Fri 09:51:20 PM 30.4856 -94.9267 50° Northeast 379 436 15,000 1,820 Climbing Houston Center
Fri 09:52:21 PM 30.5583 -94.8247 50° Northeast 397 457 16,900 1,623 Climbing Houston Center
Fri 09:53:22 PM 30.6300 -94.7186 52° Northeast 412 474 18,300 1,024 Climbing Houston Center
Fri 09:54:24 PM 30.6947 -94.5994 58° Northeast 437 503 19,000 341 Climbing Houston Center
Fri 09:55:25 PM 30.7417 -94.4569 69° East 467 537 19,000  Level Houston Center
Fri 09:56:26 PM 30.7867 -94.3119 70° East 478 550 19,000  Level Houston Center
Fri 09:57:27 PM 30.8342 -94.1628 70° East 476 548 19,000  Level Houston Center
Fri 09:58:17 PM 30.8767 -94.0236 70° East 477 549 19,000  Level Houston Center
Fri 09:59:17 PM 30.9247 -93.8719 70° East 478 550 19,000  Level Houston Center
Fri 10:00:18 PM 30.9669 -93.7328 70° East 477 549 19,000 -198 Level Houston Center
Fri 10:01:18 PM 31.0147 -93.5808 70° East 475 547 18,600 -1,240 Descending Houston Center
Fri 10:02:19 PM 31.0569 -93.4436 70° East 470 541 16,500 -2,262 Descending Houston Center
Fri 10:03:20 PM 31.1097 -93.3131 65° Northeast 417 480 14,000 -2,162 Descending Houston Center
Fri 10:04:35 PM 31.1675 -93.1839 62° Northeast 406 467 11,600 -1,835 Descending Houston Center
Fri 10:05:21 PM 31.2067 -93.0883 64° Northeast 338 389 10,300 -1,279 Descending Houston Center
Fri 10:05:36 PM 31.2114 -93.0789 60° Northeast 370 426 10,300 -1,333 Level Houston Center
Fri 10:06:15 PM 31.2414 -93.0072 64° Northeast 295 339 9,100 -1,475 Descending Houston Center
Fri 10:06:37 PM 31.2486 -92.9897 64° Northeast 318 366 8,800 -1,672 Descending Houston Center
Fri 10:07:16 PM 31.2758 -92.9239 64° Northeast 287 330 7,400 -1,967 Descending Houston Center
Fri 10:07:38 PM 31.2919 -92.8900 61° Northeast 293 337 6,800 -1,700 Descending Houston Center
Fri 10:08:16 PM 31.3125 -92.8403 64° Northeast 280 322 5,700 -1,672 Descending Houston Center
Fri 10:08:39 PM 31.3267 -92.8081 63° Northeast 283 326 5,100 -1,770 Descending Houston Center
Fri 10:09:17 PM 31.3489 -92.7567 63° Northeast 270 311 3,900 -1,574 Descending Houston Center
Fri 10:09:40 PM 31.3619 -92.7311 59° Northeast 273 314 3,500 -1,475 Descending Houston Center
Fri 10:10:18 PM 31.3819 -92.6853 63° Northeast 265 305 2,400 -1,377 Descending Houston Center
Fri 10:10:41 PM 31.3950 -92.6556 63° Northeast 264 304 2,100 -1,100 Descending Houston Center
Fri 10:11:18 PM 31.3917 -92.6114 95° East 219 252 1,300 -787 Descending Houston Center
Fri 10:11:42 PM 31.3828 -92.5978 127° Southeast 217 250 1,300 -590 Level Houston Center
Fri 10:12:19 PM 31.3628 -92.5822 146° Southeast 116 133 700 -689 Descending Houston Center
Fri 10:12:43 PM 31.3525 -92.5719 140° Southeast 165 190 600 -424 Descending Houston Center
Fri 10:13:44 PM 31.3278 -92.5508 144° Southeast 148 170 100 -492 Descending Houston Center

Login

Don't have an account? Register now (free) for customized features, flight alerts, and more!